Date String (YYYY-MM-DD hh:mm:ss) UTC,Instrument flags,Ambient pressure (hPa),Sample flow (lpm),Bypass flow (lpm),Sample temperature (°C),Ambient temperature (°C),ASC tube jacket temperature (°C),LED temperature (°C),Box temperature (°C),Sample RH (%),Span deviation,Mass concentration (μg/m³),Mass concentration (μg/m³),Mass concentration (μg/m³)
DateTimeUTC,F1_M11,P_M11,Q1_M11,Q2_M11,T1_M11,T2_M11,T3_M11,T4_M11,T5_M11,U1_M11,ZSPAN_M11,X0_M11,X2_M11,X1_M11
2023-01-12 02:00:00,,0826.4,4.97,0.00,22.2,20.9,00.0,31.2,24.0,20.5,-000.1,0010.60,0009.26,0009.07
2023-01-12 02:01:00,,0826.5,5.00,0.00,22.2,20.8,00.0,31.2,24.0,20.5,0000.4,0010.54,0009.24,0009.06
2023-01-12 02:02:00,,0826.5,5.01,0.00,22.2,20.8,00.0,31.2,24.0,20.5,0000.3,0010.56,0009.25,0009.07
2023-01-12 02:03:00,,0826.5,5.00,0.00,22.2,20.8,00.0,31.2,24.0,20.5,0000.3,0010.93,0009.27,0009.09
2023-01-12 02:04:00,,0826.4,4.99,0.00,22.2,20.7,00.0,31.1,23.9,20.5,0000.2,0011.31,0009.29,0009.10
2023-01-12 02:05:00,,0826.5,5.00,0.00,22.2,20.7,00.0,31.1,23.9,20.6,0000.5,0011.34,0009.33,0009.13
2023-01-12 02:06:00,,0826.5,5.00,0.00,22.2,20.6,00.0,31.1,23.8,20.6,0000.2,0011.48,0009.34,0009.15
2023-01-12 02:07:00,,0826.5,5.00,0.00,22.1,20.6,00.0,31.1,23.8,20.7,-000.2,0011.85,0009.35,0009.15
2023-01-12 02:08:00,,0826.5,4.98,0.00,22.1,20.6,00.0,31.1,23.8,20.6,-000.4,0011.87,0009.31,0009.12
2023-01-12 02:09:00,,0826.5,5.03,0.00,22.1,20.5,00.0,31.1,23.8,20.7,-000.4,0011.88,0009.28,0009.09
2023-01-12 02:10:00,,0826.5,5.00,0.00,22.1,20.5,00.0,31.1,23.7,20.7,-000.4,0011.93,0009.26,0009.07
2023-01-12 02:11:00,,0826.5,5.00,0.00,22.1,20.4,00.0,31.1,23.7,20.7,-000.3,0011.98,0009.23,0009.04
2023-01-12 02:12:00,,0826.5,5.00,0.00,22.0,20.6,00.0,31.0,23.8,20.7,-000.6,0012.08,0009.22,0009.01
2023-01-12 02:13:00,,0826.6,5.01,0.00,22.1,21.5,00.0,31.0,24.0,20.6,-000.6,0012.10,0009.17,0008.97
2023-01-12 02:14:00,,0826.6,4.99,0.00,22.2,22.5,00.0,31.0,24.2,20.5,-000.6,0011.92,0009.12,0008.92
2023-01-12 02:15:00,,0826.7,5.00,0.00,22.3,22.6,00.0,31.0,24.3,20.4,-000.8,0011.45,0009.06,0008.89
2023-01-12 02:16:00,,0826.6,4.99,0.00,22.3,22.1,00.0,31.1,24.2,20.4,-001.0,0011.44,0009.00,0008.84
2023-01-12 02:17:00,,0826.7,5.00,0.00,22.3,21.7,00.0,31.1,24.1,20.4,-001.1,0011.35,0008.95,0008.80
2023-01-12 02:18:00,,0826.7,5.00,0.00,22.3,21.4,00.0,31.1,24.1,20.4,-001.1,0011.12,0008.94,0008.78
2023-01-12 02:19:00,,0826.7,5.00,0.00,22.3,21.1,00.0,31.1,24.0,20.4,-001.3,0011.16,0008.94,0008.79
2023-01-12 02:20:00,,0826.7,5.00,0.00,22.3,20.9,00.0,31.1,23.9,20.5,-001.5,0011.24,0008.97,0008.83
2023-01-12 02:21:00,,0826.7,5.00,0.00,22.2,20.8,00.0,31.1,23.9,20.5,-001.6,0011.34,0009.01,0008.89
2023-01-12 02:22:00,,0826.7,4.99,0.00,22.2,20.7,00.0,31.1,23.9,20.5,-001.7,0011.45,0009.06,0008.94
2023-01-12 02:23:00,,0826.7,5.00,0.00,22.2,20.6,00.0,31.1,23.8,20.5,-001.8,0011.52,0009.11,0009.00
2023-01-12 02:24:00,,0826.7,5.00,0.00,22.2,20.4,00.0,31.1,23.8,20.5,-001.8,0011.56,0009.16,0009.05
2023-01-12 02:25:00,,0826.7,4.98,0.00,22.1,20.3,00.0,31.1,23.7,20.6,-001.8,0011.58,0009.19,0009.07
2023-01-12 02:26:00,,0826.6,5.00,0.00,22.1,20.2,00.0,31.1,23.7,20.6,-001.8,0011.60,0009.21,0009.10
2023-01-12 02:27:00,,0826.7,5.02,0.00,22.1,20.2,00.0,31.1,23.7,20.6,-001.8,0011.67,0009.27,0009.14
2023-01-12 02:28:00,,0826.7,5.01,0.00,22.0,20.2,00.0,31.1,23.7,20.5,-001.7,0011.78,0009.32,0009.18
2023-01-12 02:29:00,,0826.8,5.01,0.00,22.0,20.2,00.0,31.0,23.7,20.5,-001.7,0011.83,0009.38,0009.24
2023-01-12 02:30:00,,0827.0,5.00,0.00,22.0,20.1,00.0,31.0,23.7,20.5,-001.7,0011.91,0009.45,0009.31
2023-01-12 02:31:00,,0827.3,4.99,0.00,22.0,20.2,00.0,31.0,23.6,20.5,-001.6,0011.95,0009.49,0009.34
2023-01-12 02:32:00,,0827.2,5.00,0.00,22.0,20.2,00.0,31.0,23.7,20.6,-001.5,0011.90,0009.49,0009.35
2023-01-12 02:33:00,,0826.9,4.99,0.00,22.0,20.3,00.0,31.0,23.7,20.6,-001.5,0011.87,0009.51,0009.38
2023-01-12 02:34:00,,0826.8,5.00,0.00,22.0,20.3,00.0,31.0,23.6,20.6,-001.5,0011.86,0009.54,0009.42
2023-01-12 02:35:00,,0826.9,5.00,0.00,21.9,20.3,00.0,30.9,23.6,20.5,-001.6,0012.03,0009.66,0009.52
2023-01-12 02:36:00,,0826.9,5.00,0.00,21.9,20.2,00.0,30.9,23.6,20.5,-001.6,0012.27,0009.85,0009.69
2023-01-12 02:37:00,,0826.9,4.99,0.00,21.9,20.1,00.0,30.9,23.5,20.5,-001.3,0012.48,0010.04,0009.86
2023-01-12 02:38:00,,0826.9,5.00,0.00,21.9,20.1,00.0,30.9,23.5,20.5,-001.3,0012.58,0010.13,0009.96
2023-01-12 02:39:00,,0826.9,5.00,0.00,21.9,20.2,00.0,30.9,23.5,20.5,-001.4,0012.63,0010.22,0010.04
2023-01-12 02:40:00,,0826.9,5.01,0.00,21.9,21.2,00.0,30.8,23.8,20.4,-001.4,0012.68,0010.28,0010.10
2023-01-12 02:41:00,,0826.9,5.00,0.00,22.0,22.3,00.0,30.8,24.0,20.3,-001.4,0012.72,0010.33,0010.15
2023-01-12 02:42:00,,0827.0,4.99,0.00,22.2,22.6,00.0,30.9,24.2,20.1,-001.4,0012.70,0010.37,0010.18
2023-01-12 02:43:00,,0827.0,4.99,0.00,22.2,22.2,00.0,30.9,24.1,20.0,-001.4,0012.73,0010.41,0010.21
2023-01-12 02:44:00,,0827.0,5.00,0.00,22.2,21.8,00.0,30.9,24.1,20.0,-001.2,0012.76,0010.45,0010.24
2023-01-12 02:45:00,,0827.1,5.00,0.00,22.2,21.5,00.0,31.0,24.0,20.0,-001.2,0012.77,0010.45,0010.24
2023-01-12 02:46:00,,0827.2,5.00,0.00,22.2,21.3,00.0,31.0,24.0,19.9,-001.0,0012.63,0010.39,0010.20
2023-01-12 02:47:00,,0827.2,5.01,0.00,22.2,21.1,00.0,31.0,24.0,19.9,-000.8,0012.46,0010.30,0010.12
2023-01-12 02:48:00,,0827.2,5.00,0.00,22.2,21.1,00.0,31.0,24.0,20.0,-000.8,0012.39,0010.24,0010.07
2023-01-12 02:49:00,,0827.2,5.01,0.00,22.2,21.0,00.0,31.0,24.0,20.0,-000.9,0012.51,0010.29,0010.12
2023-01-12 02:50:00,,0827.3,5.00,0.00,22.2,20.9,00.0,31.0,24.0,20.3,-001.1,0012.63,0010.35,0010.19
2023-01-12 02:51:00,,0827.2,5.00,0.00,22.2,20.9,00.0,31.0,24.0,20.3,-000.9,0012.68,0010.39,0010.23
2023-01-12 02:52:00,,0827.3,5.00,0.00,22.2,20.8,00.0,31.0,23.9,20.3,-000.8,0012.81,0010.49,0010.32
2023-01-12 02:53:00,,0827.3,5.01,0.00,22.2,20.8,00.0,31.1,23.9,20.3,-000.8,0013.04,0010.63,0010.46
2023-01-12 02:54:00,,0827.3,5.00,0.00,22.2,20.8,00.0,31.1,23.9,20.4,-000.8,0013.20,0010.73,0010.57
2023-01-12 02:55:00,,0827.3,5.00,0.00,22.2,20.8,00.0,31.1,23.9,20.4,-001.2,0013.42,0010.87,0010.70
2023-01-12 02:56:00,,0827.4,5.01,0.00,22.2,20.8,00.0,31.1,23.9,20.4,-001.2,0013.66,0011.05,0010.88
2023-01-12 02:57:00,,0827.4,5.00,0.00,22.2,20.8,00.0,31.1,23.9,20.4,-001.3,0013.92,0011.23,0011.06
2023-01-12 02:58:00,,0827.4,5.00,0.00,22.2,20.9,00.0,31.1,24.0,20.5,-001.4,0014.19,0011.37,0011.20
2023-01-12 02:59:00,,0827.4,5.00,0.00,22.2,20.9,00.0,31.1,24.0,20.5,-001.7,0014.45,0011.53,0011.35
